Regional Weather Roundup
Issued by NWS Charleston, SC

Current Version | Previous Version | Text Only | Print | Product List | Glossary Off
Versions: 1 2 3 4 5 6 7 8 9 10 11 12 13 14 15 16 17 18 19 20 21 22 23 24 25 26 27 28 29 30 31 32 33 34 35 36 37 38 39 40 41 42 43 44 45 46 47 48 49 50

000
ASUS42 KCHS 270213
RWRCHS

REGIONAL WEATHER ROUNDUP
NATIONAL WEATHER SERVICE CHARLESTON SC
1000 PM EDT THU MAY 26 2016

NOTE: "FAIR" INDICATES FEW OR NO CLOUDS BELOW 12,000 FEET WITH NO
SIGNIFICANT WEATHER AND/OR OBSTRUCTIONS TO VISIBILITY.

NOT ALL STATIONS ARE QUALITY CONTROLLED. USE DATA WITH CAUTION...
ESPECIALLY DEWPOINT OBSERVATIONS.

SCZ027-030-031-034>040-042>050-270300-
...SOUTHEAST SOUTH CAROLINA...

CITY           SKY/WX    TMP DP  RH WIND       PRES   REMARKS
N CHARLESTON   CLEAR     73  63  70 S5        30.14R
WATERFRONT PRK   N/A     75  67  76 VRB3      30.12R
MOUNT PLEASANT FAIR      70  64  83 CALM      30.15R
JOHNS ISLAND   FAIR      72  66  83 CALM      30.15R
PINOPOLIS        N/A     75  63  64 CALM      30.06R
MONCKS CORNER  FAIR      70  57  64 S3        30.14R
SUMMERVILLE    FAIR      72  63  73 CALM      30.15
BEAUFORT MCAS  CLEAR     75  66  73 VRB3      30.14R
BEAUFORT ARPT  FAIR      72  63  73 S3        30.14
HILTON HEAD IS CLEAR     73  64  73 VRB5      30.15R
WALTERBORO     CLEAR     73  61  64 CALM      30.15R
ALLENDALE      FAIR      73  57  56 S6        30.13R

...SOUTHERN MIDLANDS AND PEE DEE...

CITY           SKY/WX    TMP DP  RH WIND       PRES   REMARKS
GEORGETOWN     FAIR      66  63  88 S3        30.16
KINGSTREE      FAIR      72  54  53 SE5       30.14
ORANGEBURG     CLEAR     75  57  53 S6        30.13R
BARNWELL       FAIR      79  63  57 S7        30.13
AIKEN          FAIR      73  63  68 S6        30.16
MANNING        FAIR      72  57  60 S3        30.14R
COLUMBIA       CLEAR     79  63  57 S8        30.10R
SUMTER         CLEAR     76  60  57 S8        30.10R
FLORENCE       CLEAR     75  59  57 S7        30.14R
MYRTLE BEACH   NOT AVBL
N MYRTLE BEACH CLEAR     75  66  73 S7        30.15R

$$

GAZ063-065-086>088-099>101-113>116-118-119-134>141-150-270300-
...SOUTHEAST GEORGIA...

CITY           SKY/WX    TMP DP  RH WIND       PRES   REMARKS
SAVANNAH ARPT  CLEAR     74  63  68 SE5       30.14R
HUNTER AAF     NOT AVBL
FORT STEWART   NOT AVBL
STATESBORO     CLEAR     75  59  58 SE5       30.13R
SYLVANIA       CLEAR     75  60  58 CALM      30.15R
CLAXTON        FAIR      70  60  69 CALM      30.14R

...CSRA...CENTRAL AND FAR SOUTHEAST GEORGIA...

CITY           SKY/WX    TMP DP  RH WIND       PRES   REMARKS
THOMSON        CLEAR     75  69  83 CALM      30.15R
AUGUSTA-BUSH   PTCLDY    77  64  64 SE7       30.11R
AUGUSTA-DANIEL CLOUDY    81  63  54 VRB6      30.12R
SWAINSBORO     CLOUDY    79  59  50 SE9       30.13R
VIDALIA        CLEAR     75  57  53 S3        30.13R
EASTMAN        MOCLDY    79  63  58 SE5       30.13R
HAZLEHURST     FAIR      78  54  43 CALM      30.12R
ALMA           CLEAR     74  57  55 SE5       30.12R
WAYCROSS       CLEAR     74  61  65 SE7       30.12R
JESUP          FAIR      68  59  73 SE3       30.14R
BAXLEY         FAIR      77  54  44 SE5       30.12R
BRUNSWICK      CLEAR     72  66  83 CALM      30.14R
SAINT SIMONS   CLEAR     76  60  57 SE10      30.13R

$$

SCZ027-028-034-036>038-045-046-048>050-GAZ119-141-270300-
...LAKE AND SUPPLEMENTAL COASTAL OBSERVATIONS...

STATION/POSITION TIME  TEMP    WIND        PRES    WAVE   SWELL
                       AIR SEA DIR/SP/G            HT/PER HT/PER/DIR
                 (UTC) (F)     (DEG/KT/KT) (MB)    (FT/S) (FT/S/D)
WINYAH BAY       NOT AVBL
LAKE MURRAY      0100   80     160/  7/  7 1017.9R
ACE BASIN NERRS  NOT AVBL
FORT PULASKI     0100                      1020.6R
SAPELO ISLAND    0100   74     110/  2     1020.0R

$$

ANZ835-935-AMZ111-154-330-350-352-354-370-450-454-472-270300-
...C-MAN AND BUOY OBSERVATIONS...

STATION/POSITION TIME  TEMP    WIND        PRES    WAVE   SWELL
                       AIR SEA DIR/SP/G            HT/PER HT/PER/DIR
                 (UTC) (F)     (DEG/KT/KT) (MB)    (FT/S) (FT/S/D)
BUOY 41004       0150   78 77  130/ 10/ 14 1020.2R   2/ 8   2/ 8
BUOY 41008       0150   77 77  120/ 12/ 14 1020.2R   2/ 8   2/110/ 8
FOLLY BEACH CMAN 0100   76     150/  7/  7 1020.5R
CAPERS NEARSHORE 0108   77 77  160/  8/ 12 1020.2R
FRIPP NEARSHORE  0108   76 78  150/  8/ 12 1019.6R


STATION/POSITION TIME  TEMP    WIND        PRES    WAVE   SWELL
                       AIR SEA DIR/SP/G            HT/PER HT/PER/DIR
                 (UTC) (F)     (DEG/KT/KT) (MB)    (FT/S) (FT/S/D)
5E ST. MARYS GA  0101      78                N/A     3/ 7
FRYING PAN BUOY  0100   78 77  140/ 10/ 14 1020.3R
BUOY 41025       0150   76 71  170/ 10/ 12 1021.2R   2/ 8   2/140/ 8
CAPE LOOKOUT NC  0100   74     180/  8/  9 1020.7R
BUOY 41002       0150   76 78   80/ 14/ 16 1020.7F   3/11   2/ 50/11
BUOY 41010       0120   76 79   70/ 14/ 16 1018.4R
ST AUGUSTINE FL  0200   77 80   80/ 13/ 14 1020.7R


$$




USA.gov is the U.S. government's official web portal to all federal, state and local government web resources and services.